Voltar ao catálogo

AIRSAT-07

AtivoCiênciaPO
NORAD 63298·PAYLOAD·🇨🇳 China
Este nome de satélite ainda não foi confirmado por fontes oficiais.

Lançado Mar 17, 2025 de Jiuquan Satellite Launch Center

Loading…

Próximas Passagens (próximas 24 horas)

TLE

AtualizadoSource: Space-Track

Época: Sep 14, 2026, 13:23 UTC

1 63298U 25055H   26257.55814395  .00051862  00000-0  10410-2 0  9997
2 63298  97.6642  48.5533 0005080 182.0771 178.0458 15.46501943 83227

Acompanhe AIRSAT-07 em tempo real com AllMySat

Download on the App Store